Weather History for KGLD - June, 2014

Change the Weather History Date:

Friday, June 6, 2014

  Actual Average Record
Temperature  
Mean Temperature 67 °F 66 °F  
Max Temperature 82 °F 80 °F 100 °F (1969)
Min Temperature 51 °F 53 °F 36 °F (1998)
Degree Days  
Heating Degree Days 0 2  
Month to date heating degree days 0 16  
Since 1 June heating degree days 0 16  
Since 1 July heating degree days 5958 5882  
Cooling Degree Days 2 4  
Month to date cooling degree days 31 20  
Year to date cooling degree days 77 61  
Since 1 June cooling degree days 31 20  
Growing Degree Days 18 (Base 50)    
Moisture  
Dew Point 55 °F    
Average Humidity 67    
Maximum Humidity 100    
Minimum Humidity 33    
Precipitation  
Precipitation 0.55 in 0.12 in 2.05 in (1962)
Month to date precipitation 1.52 0.68  
Year to date precipitation 5.06 7.16  
Snow  
Snow 0.00 in 0.00 in - ()
Month to date snowfall 0.0 0.0  
Since 1 June snowfall 0.0 0.0  
Since 1 July snowfall 29.1 35.5  
Snow Depth 0.00 in    
Sea Level Pressure  
Sea Level Pressure 29.87 in    
Wind  
Wind Speed 13 mph (SE)    
Max Wind Speed 58 mph    
Max Gust Speed 72 mph    
Visibility 9 miles    
Events Rain , Thunderstorm    
T = Trace of Precipitation, MM = Missing Value Source: NWS Daily Summary

Daily Weather History Graph

Daily Weather History Graph

Search for Another Location

Airport or City:

Trip Planner

Search our weather history database for the weather conditions in past years. The results will help you decide how hot, cold, wet, or windy it might be!

Date:

Astronomy

Jun. 06, 2014 Rise Set
Actual Time 5:20 AM MDT 8:10 PM MDT
Civil Twilight 4:48 AM MDT 8:43 PM MDT
Nautical Twilight 4:08 AM MDT 9:23 PM MDT
Astronomical Twilight 3:21 AM MDT 10:09 PM MDT
Moon 1:34 PM MDT (6/6) 1:10 AM MDT (6/6)
Length of Visible Light 15h 54m
Length of Day
14h 50m
First Quarter, 59% of the Moon is Illuminated
Jun 6
First Quarter
Jun 12
Full
Jun 19
Last Quarter
Jun 27
New
Jul 5
First Quarter

Hourly Weather History & Observations

Time (MDT) Temp. Heat Index Dew Point Humidity Pressure Visibility Wind Dir Wind Speed Gust Speed Precip Events Conditions
12:53 AM 73.0 °F - 43.0 °F 34% 29.80 in 10.0 mi South 21.9 mph 29.9 mph N/A   Partly Cloudy
1:53 AM 66.9 °F - 48.0 °F 51% 29.86 in 10.0 mi Calm Calm - N/A   Partly Cloudy
2:53 AM 64.9 °F - 51.1 °F 61% 29.89 in 10.0 mi North 9.2 mph - N/A   Mostly Cloudy
3:44 AM 66.0 °F - 50.0 °F 56% 29.93 in 10.0 mi South 12.7 mph - 0.00 in   Scattered Clouds
3:53 AM 66.9 °F - 48.9 °F 52% 29.82 in 10.0 mi South 10.4 mph - 0.00 in   Mostly Cloudy
4:53 AM 63.0 °F - 52.0 °F 67% 29.84 in 10.0 mi South 5.8 mph - N/A   Mostly Cloudy
5:53 AM 63.0 °F - 55.9 °F 78% 29.87 in 10.0 mi SSE 15.0 mph - 0.00 in Rain Light Rain
6:53 AM 62.1 °F - 55.9 °F 80% 29.86 in 10.0 mi South 19.6 mph - 0.00 in   Clear
7:53 AM 69.1 °F - 61.0 °F 75% 29.87 in 10.0 mi South 21.9 mph 28.8 mph N/A   Clear
8:53 AM 71.6 °F - 62.6 °F 73% 29.98 in 10.0 mi South 20.7 mph 27.6 mph N/A   Clear
9:53 AM 73.4 °F - 60.8 °F 65% 29.98 in 10.0 mi South 21.9 mph - N/A   Partly Cloudy
10:53 AM 77.0 °F - 60.1 °F 56% 29.85 in 10.0 mi South 11.5 mph - N/A   Clear
11:53 AM 79.0 °F - 57.9 °F 48% 29.84 in 10.0 mi SSE 11.5 mph 21.9 mph N/A   Clear
12:53 PM 78.1 °F - 55.9 °F 46% 29.83 in 10.0 mi SSE 12.7 mph 24.2 mph N/A   Mostly Cloudy
1:53 PM 80.1 °F 80.6 °F 57.9 °F 47% 29.81 in 10.0 mi SE 17.3 mph 23.0 mph N/A   Partly Cloudy
2:53 PM 81.0 °F 81.1 °F 57.9 °F 45% 29.76 in 10.0 mi SSE 20.7 mph 28.8 mph N/A   Clear
3:53 PM 81.0 °F - 52.0 °F 36% 29.71 in 10.0 mi SSE 23.0 mph 31.1 mph N/A   Partly Cloudy
4:53 PM 78.1 °F - 51.1 °F 39% 29.71 in 10.0 mi SSE 21.9 mph 31.1 mph N/A   Mostly Cloudy
5:13 PM 73.0 °F - 57.9 °F 59% 29.80 in 10.0 mi SSE 26.5 mph 34.5 mph 0.01 in Rain , Thunderstorm Light Thunderstorms and Rain
5:24 PM 72.0 °F - 57.9 °F 61% 29.80 in 10.0 mi SSE 19.6 mph 31.1 mph 0.02 in Rain Light Rain
5:53 PM 73.0 °F - 59.0 °F 61% 29.73 in 10.0 mi Calm Calm - 0.02 in Thunderstorm Clear
6:11 PM 69.1 °F - 62.1 °F 78% 29.92 in 10.0 mi WNW 31.1 mph 42.6 mph N/A   Squalls
6:14 PM 63.0 °F - 55.9 °F 78% 29.91 in 10.0 mi NNW 54.1 mph 71.3 mph N/A Thunderstorm Squalls
6:24 PM 57.0 °F - 53.1 °F 87% 29.93 in 10.0 mi North 39.1 mph 70.2 mph N/A Thunderstorm Mostly Cloudy
6:27 PM 55.9 °F - 54.0 °F 93% 29.94 in 8.0 mi North 38.0 mph 62.1 mph 0.00 in Rain , Thunderstorm Light Thunderstorms and Rain
6:42 PM 55.0 °F - 54.0 °F 96% 29.99 in 1.8 mi North 35.7 mph 46.0 mph 0.06 in Rain , Thunderstorm Heavy Thunderstorms and Rain
6:49 PM 53.6 °F - 53.6 °F 100% 30.00 in 1.5 mi North 25.3 mph 43.7 mph 0.35 in Rain , Thunderstorm Heavy Thunderstorms and Rain
6:53 PM 54.0 °F - 53.1 °F 97% 29.94 in 2.0 mi NNE 26.5 mph 36.8 mph 0.41 in Rain , Thunderstorm Heavy Thunderstorms and Rain
7:01 PM 55.0 °F - 54.0 °F 96% 30.00 in 5.0 mi NE 17.3 mph 34.5 mph 0.03 in Rain , Thunderstorm Thunderstorms and Rain
7:12 PM 55.9 °F - 54.0 °F 93% 29.97 in 5.0 mi ENE 16.1 mph 34.5 mph 0.08 in Rain , Thunderstorm Rain
7:33 PM 55.9 °F - 54.0 °F 93% 30.01 in 9.0 mi ENE 13.8 mph 31.1 mph 0.11 in Rain Light Rain
7:53 PM 55.0 °F - 54.0 °F 96% 29.87 in 10.0 mi ENE 17.3 mph 27.6 mph 0.12 in Rain Light Rain
8:26 PM 55.0 °F - 54.0 °F 96% 29.91 in 10.0 mi NE 12.7 mph - 0.00 in   Mostly Cloudy
8:53 PM 55.9 °F - 54.0 °F 93% 29.86 in 10.0 mi WNW 4.6 mph - 0.00 in   Clear
9:53 PM 55.0 °F - 54.0 °F 96% 29.88 in 10.0 mi WNW 6.9 mph - N/A   Clear
10:53 PM 54.0 °F - 53.1 °F 97% 29.90 in 10.0 mi NW 4.6 mph - N/A   Clear
11:53 PM 53.1 °F - 52.0 °F 96% 29.90 in 10.0 mi NNW 6.9 mph - N/A   Clear